Simultaneous Nadir Overpasses (SNOs) Predictions

Prediction of SNOs between LANDSAT-8 and METOP-A Satellite Orbit:

Table of predicted SNOs for the next 14.0 days since TLE Epoch: 3/12/2017
Index Date (LANDSAT-8) Time (LANDSAT-8) Lat,Lon (LANDSAT-8) SZA (LANDSAT-8 ) Date (METOP-A) Time (METOP-A) Lat,Lon (METOP-A) SZA (METOP-A ) Distance(km) Time Diff (sec)
1 03/14/2017 05:46:06 -81.13, -46.88 94.65 03/14/2017 05:45:32 -81.14, -46.89 94.66 0.23 34
2 03/14/2017 06:35:31 81.16, 121.21 85.41 03/14/2017 06:36:11 81.16, 121.08 85.41 2.30 40
3 03/17/2017 01:20:18 -81.15, 19.73 95.71 03/17/2017 01:19:53 -81.14, 19.68 95.73 0.98 25
4 03/17/2017 02:09:43 81.17,-172.20 84.34 03/17/2017 02:10:31 81.17,-172.00 84.38 3.31 48
5 03/19/2017 20:54:32 -81.13, 85.96 96.83 03/19/2017 20:54:16 -81.13, 85.86 96.85 1.60 16
6
